Time,TemperatureF,DewpointF,PressureIn,WindDirection,WindDirectionDegrees,WindSpeedMPH,WindSpeedGustMPH,Humidity,HourlyPrecipIn,Conditions,Clouds,dailyrainin,SoftwareType,DateUTC
2013-01-06 00:05:00,36.2,33.8,29.89,SW,230,4.0,7.0,91,0.00,,,0.00,Wunderground v.1.15,2013-01-06 06:05:00,
2013-01-06 00:10:00,36.2,33.8,29.89,SSE,167,4.0,8.0,91,0.00,,,0.00,Wunderground v.1.15,2013-01-06 06:10:00,
2013-01-06 00:21:00,36.2,33.8,29.89,SW,223,4.0,4.0,91,0.00,,,0.01,Wunderground v.1.15,2013-01-06 06:21:00,
2013-01-06 00:27:00,36.1,33.7,29.89,WSW,242,4.0,6.0,91,0.00,,,0.01,Wunderground v.1.15,2013-01-06 06:27:00,
2013-01-06 00:32:00,36.1,33.7,29.89,South,173,3.0,5.0,91,0.00,,,0.01,Wunderground v.1.15,2013-01-06 06:32:00,
2013-01-06 00:38:00,36.1,33.7,29.89,SE,132,4.0,6.0,91,0.00,,,0.01,Wunderground v.1.15,2013-01-06 06:38:00,
2013-01-06 00:45:00,36.0,33.6,29.89,South,189,4.0,5.0,91,0.00,,,0.01,Wunderground v.1.15,2013-01-06 06:45:00,
2013-01-06 00:50:00,36.0,33.6,29.89,SSE,165,4.0,4.0,91,0.00,,,0.01,Wunderground v.1.15,2013-01-06 06:50:00,
2013-01-06 00:56:00,36.0,33.6,29.89,South,189,4.0,9.0,91,0.00,,,0.01,Wunderground v.1.15,2013-01-06 06:56:00,
2013-01-06 01:02:00,36.0,33.6,29.89,SSW,204,4.0,12.0,91,0.00,,,0.01,Wunderground v.1.15,2013-01-06 07:02:00,
2013-01-06 01:08:00,35.9,33.5,29.89,South,175,3.0,12.0,91,0.00,,,0.01,Wunderground v.1.15,2013-01-06 07:08:00,
2013-01-06 01:14:00,35.9,33.5,29.89,South,170,3.0,4.0,91,0.00,,,0.01,Wunderground v.1.15,2013-01-06 07:14:00,
2013-01-06 01:20:00,35.9,33.5,29.89,WSW,242,4.0,4.0,91,0.00,,,0.01,Wunderground v.1.15,2013-01-06 07:20:00,
2013-01-06 01:26:00,35.9,33.5,29.88,SSW,208,4.0,4.0,91,0.00,,,0.01,Wunderground v.1.15,2013-01-06 07:26:00,
2013-01-06 08:09:00,21.8,18.5,30.02,WSW,256,3.0,8.0,87,0.00,,,0.01,Wunderground v.1.15,2013-01-06 14:09:00,
2013-01-06 08:15:00,21.8,18.5,30.02,NW,317,3.0,4.0,87,0.00,,,0.01,Wunderground v.1.15,2013-01-06 14:15:00,
2013-01-06 08:20:00,21.7,18.4,30.03,NNE,25,3.0,3.0,87,0.00,,,0.01,Wunderground v.1.15,2013-01-06 14:20:00,
2013-01-06 08:26:00,21.6,18.3,30.03,NW,317,3.0,5.0,87,0.00,,,0.01,Wunderground v.1.15,2013-01-06 14:26:00,
2013-01-06 08:31:00,21.6,18.3,30.03,NNW,340,3.0,6.0,87,0.00,,,0.01,Wunderground v.1.15,2013-01-06 14:31:00,
2013-01-06 08:37:00,21.6,18.3,30.04,WNW,299,3.0,6.0,87,0.00,,,0.01,Wunderground v.1.15,2013-01-06 14:37:00,
2013-01-06 08:42:00,21.9,18.6,30.04,WNW,292,3.0,5.0,87,0.00,,,0.01,Wunderground v.1.15,2013-01-06 14:42:00,
2013-01-06 08:48:00,22.2,18.9,30.05,SW,233,3.0,7.0,87,0.00,,,0.01,Wunderground v.1.15,2013-01-06 14:48:00,
2013-01-06 08:53:00,22.4,19.1,30.05,West,268,4.0,5.0,87,0.00,,,0.01,Wunderground v.1.15,2013-01-06 14:53:00,
2013-01-06 08:58:00,22.6,19.3,30.05,NW,308,3.0,5.0,87,0.00,,,0.01,Wunderground v.1.15,2013-01-06 14:58:00,
2013-01-06 09:04:00,22.9,19.3,30.06,WNW,290,3.0,8.0,86,0.00,,,0.01,Wunderground v.1.15,2013-01-06 15:04:00,
2013-01-06 09:10:00,23.1,19.8,30.06,WNW,284,3.0,4.0,87,0.00,,,0.01,Wunderground v.1.15,2013-01-06 15:10:00,
2013-01-06 09:15:00,23.3,20.0,30.06,West,275,3.0,5.0,87,0.00,,,0.01,Wunderground v.1.15,2013-01-06 15:15:00,
2013-01-06 09:21:00,23.5,19.9,30.06,SW,231,3.0,5.0,86,0.00,,,0.01,Wunderground v.1.15,2013-01-06 15:21:00,
2013-01-06 09:26:00,23.7,20.1,30.07,WNW,298,3.0,5.0,86,0.00,,,0.01,Wunderground v.1.15,2013-01-06 15:26:00,
2013-01-06 09:31:00,24.0,20.4,30.07,West,262,3.0,3.0,86,0.00,,,0.01,Wunderground v.1.15,2013-01-06 15:31:00,
2013-01-06 09:36:00,24.3,20.7,30.07,WNW,290,3.0,5.0,86,0.00,,,0.01,Wunderground v.1.15,2013-01-06 15:36:00,
2013-01-06 09:41:00,24.7,20.8,30.07,NW,325,3.0,4.0,85,0.00,,,0.01,Wunderground v.1.15,2013-01-06 15:41:00,
2013-01-06 09:46:00,24.8,20.9,30.07,WNW,285,3.0,5.0,85,0.00,,,0.01,Wunderground v.1.15,2013-01-06 15:46:00,
2013-01-06 09:52:00,25.1,21.2,30.08,WNW,296,4.0,7.0,85,0.00,,,0.01,Wunderground v.1.15,2013-01-06 15:52:00,
2013-01-06 09:58:00,25.3,21.4,30.08,NW,317,4.0,7.0,85,0.00,,,0.01,Wunderground v.1.15,2013-01-06 15:58:00,
2013-01-06 10:03:00,25.4,21.5,30.08,WSW,241,4.0,7.0,85,0.00,,,0.01,Wunderground v.1.15,2013-01-06 16:03:00,
2013-01-06 10:09:00,25.6,21.4,30.09,NW,315,3.0,7.0,84,0.00,,,0.01,Wunderground v.1.15,2013-01-06 16:09:00,
2013-01-06 10:15:00,25.8,21.6,30.09,WNW,300,3.0,5.0,84,0.00,,,0.01,Wunderground v.1.15,2013-01-06 16:15:00,
2013-01-06 10:21:00,26.1,21.9,30.09,NW,306,3.0,3.0,84,0.00,,,0.01,Wunderground v.1.15,2013-01-06 16:21:00,
2013-01-06 10:27:00,26.3,22.1,30.10,NNW,331,3.0,4.0,84,0.00,,,0.01,Wunderground v.1.15,2013-01-06 16:27:00,
2013-01-06 10:33:00,26.5,22.3,30.10,WSW,249,3.0,5.0,84,0.00,,,0.01,Wunderground v.1.15,2013-01-06 16:33:00,
2013-01-06 10:39:00,26.6,22.4,30.10,West,279,3.0,5.0,84,0.00,,,0.01,Wunderground v.1.15,2013-01-06 16:39:00,
2013-01-06 10:45:00,26.8,22.6,30.10,NE,38,3.0,3.0,84,0.00,,,0.01,Wunderground v.1.15,2013-01-06 16:45:00,
2013-01-06 10:51:00,27.1,22.9,30.10,West,276,3.0,4.0,84,0.00,,,0.01,Wunderground v.1.15,2013-01-06 16:51:00,
2013-01-06 10:57:00,27.4,22.9,30.10,WSW,258,3.0,5.0,83,0.00,,,0.01,Wunderground v.1.15,2013-01-06 16:57:00,
2013-01-06 11:02:00,27.8,23.3,30.10,WNW,296,3.0,9.0,83,0.00,,,0.01,Wunderground v.1.15,2013-01-06 17:02:00,
2013-01-06 11:08:00,28.4,23.9,30.10,WNW,302,3.0,9.0,83,0.00,,,0.01,Wunderground v.1.15,2013-01-06 17:08:00,
2013-01-06 11:14:00,29.0,24.2,30.10,South,191,2.0,3.0,82,0.00,,,0.01,Wunderground v.1.15,2013-01-06 17:14:00,
2013-01-06 11:20:00,29.4,24.3,30.11,NNE,19,3.0,3.0,81,0.00,,,0.01,Wunderground v.1.15,2013-01-06 17:20:00,
2013-01-06 11:26:00,29.7,24.9,30.11,SSW,205,3.0,3.0,82,0.00,,,0.01,Wunderground v.1.15,2013-01-06 17:26:00,
2013-01-06 11:31:00,29.8,24.4,30.11,West,281,3.0,3.0,80,0.00,,,0.01,Wunderground v.1.15,2013-01-06 17:31:00,
2013-01-06 11:37:00,29.9,24.5,30.12,WNW,286,3.0,4.0,80,0.00,,,0.01,Wunderground v.1.15,2013-01-06 17:37:00,
2013-01-06 11:43:00,29.9,24.2,30.12,WSW,251,3.0,4.0,79,0.00,,,0.01,Wunderground v.1.15,2013-01-06 17:43:00,
2013-01-06 11:49:00,29.9,24.5,30.12,WSW,242,3.0,7.0,80,0.00,,,0.01,Wunderground v.1.15,2013-01-06 17:49:00,
2013-01-06 11:55:00,29.9,24.2,30.12,WSW,257,3.0,4.0,79,0.00,,,0.01,Wunderground v.1.15,2013-01-06 17:55:00,
2013-01-06 12:01:00,29.8,24.1,30.12,WNW,295,3.0,4.0,79,0.00,,,0.01,Wunderground v.1.15,2013-01-06 18:01:00,
2013-01-06 12:06:00,30.1,24.7,30.12,WSW,253,3.0,4.0,80,0.00,,,0.01,Wunderground v.1.15,2013-01-06 18:06:00,
2013-01-06 12:11:00,30.3,24.6,30.12,West,279,3.0,4.0,79,0.00,,,0.01,Wunderground v.1.15,2013-01-06 18:11:00,
2013-01-06 12:17:00,30.2,24.8,30.12,NW,313,2.0,4.0,80,0.00,,,0.01,Wunderground v.1.15,2013-01-06 18:17:00,
2013-01-06 12:22:00,30.4,24.7,30.13,West,267,3.0,3.0,79,0.00,,,0.01,Wunderground v.1.15,2013-01-06 18:22:00,
2013-01-06 12:27:00,30.3,24.3,30.13,WSW,252,3.0,5.0,78,0.00,,,0.01,Wunderground v.1.15,2013-01-06 18:27:00,
2013-01-06 12:32:00,30.1,24.4,30.13,North,9,3.0,7.0,79,0.00,,,0.01,Wunderground v.1.15,2013-01-06 18:32:00,
2013-01-06 12:37:00,29.9,24.2,30.13,SW,217,3.0,7.0,79,0.00,,,0.01,Wunderground v.1.15,2013-01-06 18:37:00,
2013-01-06 12:43:00,29.9,24.5,30.13,North,355,3.0,3.0,80,0.00,,,0.01,Wunderground v.1.15,2013-01-06 18:43:00,
2013-01-06 12:48:00,30.3,24.9,30.13,NW,317,3.0,4.0,80,0.00,,,0.01,Wunderground v.1.15,2013-01-06 18:48:00,
2013-01-06 12:54:00,30.2,24.5,30.13,West,274,3.0,4.0,79,0.00,,,0.01,Wunderground v.1.15,2013-01-06 18:54:00,
2013-01-06 13:00:00,30.5,24.8,30.12,WNW,286,3.0,3.0,79,0.00,,,0.01,Wunderground v.1.15,2013-01-06 19:00:00,
2013-01-06 13:05:00,30.7,25.0,30.13,West,269,3.0,10.0,79,0.00,,,0.01,Wunderground v.1.15,2013-01-06 19:05:00,
2013-01-06 13:11:00,30.7,24.7,30.13,SW,235,3.0,4.0,78,0.00,,,0.01,Wunderground v.1.15,2013-01-06 19:11:00,
2013-01-06 13:17:00,30.8,24.7,30.13,WSW,248,2.0,4.0,78,0.00,,,0.01,Wunderground v.1.15,2013-01-06 19:17:00,
2013-01-06 13:22:00,30.7,24.7,30.13,WNW,285,2.0,3.0,78,0.00,,,0.01,Wunderground v.1.15,2013-01-06 19:22:00,
2013-01-06 13:28:00,30.9,25.2,30.13,West,267,2.0,4.0,79,0.00,,,0.01,Wunderground v.1.15,2013-01-06 19:28:00,
2013-01-06 13:34:00,31.0,24.6,30.14,WNW,286,2.0,2.0,77,0.00,,,0.01,Wunderground v.1.15,2013-01-06 19:34:00,
2013-01-06 13:39:00,31.1,25.0,30.14,NW,304,2.0,5.0,78,0.00,,,0.01,Wunderground v.1.15,2013-01-06 19:39:00,
2013-01-06 13:49:00,30.8,24.7,30.15,WSW,255,3.0,5.0,78,0.00,,,0.01,Wunderground v.1.15,2013-01-06 19:49:00,
2013-01-06 13:54:00,30.4,24.4,30.15,West,275,3.0,4.0,78,0.00,,,0.01,Wunderground v.1.15,2013-01-06 19:54:00,
2013-01-06 14:01:00,30.4,24.7,30.16,WNW,294,3.0,4.0,79,0.00,,,0.01,Wunderground v.1.15,2013-01-06 20:01:00,
2013-01-06 14:07:00,30.7,25.0,30.16,WNW,288,3.0,4.0,79,0.00,,,0.01,Wunderground v.1.15,2013-01-06 20:07:00,
2013-01-06 14:12:00,31.0,25.2,30.16,West,275,3.0,3.0,79,0.00,,,0.01,Wunderground v.1.15,2013-01-06 20:12:00,
2013-01-06 14:14:00,31.0,24.9,30.16,NW,313,3.0,3.0,78,0.00,,,0.01,Wunderground v.1.15,2013-01-06 20:14:00,
2013-01-06 14:20:00,31.0,24.9,30.17,NW,319,3.0,3.0,78,0.00,,,0.01,Wunderground v.1.15,2013-01-06 20:20:00,
2013-01-06 14:26:00,30.7,24.7,30.16,West,276,4.0,4.0,78,0.00,,,0.01,Wunderground v.1.15,2013-01-06 20:26:00,
2013-01-06 14:31:00,30.7,24.7,30.17,NW,304,3.0,4.0,78,0.00,,,0.01,Wunderground v.1.15,2013-01-06 20:31:00,
2013-01-06 14:37:00,30.8,24.7,30.17,WNW,287,3.0,4.0,78,0.00,,,0.01,Wunderground v.1.15,2013-01-06 20:37:00,
2013-01-06 14:42:00,30.9,24.8,30.17,WSW,254,3.0,3.0,78,0.00,,,0.01,Wunderground v.1.15,2013-01-06 20:42:00,
2013-01-06 14:47:00,30.8,24.4,30.18,West,267,3.0,4.0,77,0.00,,,0.01,Wunderground v.1.15,2013-01-06 20:47:00,
2013-01-06 14:53:00,30.8,24.7,30.18,West,281,3.0,4.0,78,0.00,,,0.01,Wunderground v.1.15,2013-01-06 20:53:00,
2013-01-06 14:58:00,30.9,24.5,30.18,NW,317,3.0,4.0,77,0.00,,,0.01,Wunderground v.1.15,2013-01-06 20:58:00,
2013-01-06 15:04:00,31.0,24.6,30.18,WNW,289,2.0,8.0,77,0.00,,,0.01,Wunderground v.1.15,2013-01-06 21:04:00,
2013-01-06 15:06:00,31.1,24.7,30.18,West,263,2.0,8.0,77,0.00,,,0.01,Wunderground v.1.15,2013-01-06 21:06:00,
2013-01-06 15:12:00,31.3,24.9,30.18,North,350,2.0,2.0,77,0.00,,,0.01,Wunderground v.1.15,2013-01-06 21:12:00,
2013-01-06 15:18:00,31.3,24.6,30.18,West,261,2.0,2.0,76,0.00,,,0.01,Wunderground v.1.15,2013-01-06 21:18:00,
2013-01-06 15:23:00,31.1,24.4,30.19,WNW,294,2.0,3.0,76,0.00,,,0.01,Wunderground v.1.15,2013-01-06 21:23:00,
2013-01-06 15:29:00,30.8,24.4,30.19,WSW,258,2.0,3.0,77,0.00,,,0.01,Wunderground v.1.15,2013-01-06 21:29:00,
2013-01-06 15:35:00,30.6,24.2,30.20,West,278,2.0,3.0,77,0.00,,,0.01,Wunderground v.1.15,2013-01-06 21:35:00,
2013-01-06 15:41:00,30.0,24.3,30.20,WNW,302,2.0,2.0,79,0.00,,,0.01,Wunderground v.1.15,2013-01-06 21:41:00,
2013-01-06 15:47:00,29.6,23.9,30.21,WNW,284,2.0,3.0,79,0.00,,,0.01,Wunderground v.1.15,2013-01-06 21:47:00,
2013-01-06 15:53:00,29.3,23.9,30.21,WNW,296,2.0,2.0,80,0.00,,,0.01,Wunderground v.1.15,2013-01-06 21:53:00,
2013-01-06 15:59:00,29.0,23.9,30.21,NNW,333,2.0,4.0,81,0.00,,,0.01,Wunderground v.1.15,2013-01-06 21:59:00,
2013-01-06 16:04:00,28.8,24.0,30.21,WNW,303,2.0,7.0,82,0.00,,,0.01,Wunderground v.1.15,2013-01-06 22:04:00,
2013-01-06 16:10:00,28.5,23.7,30.22,West,263,2.0,2.0,82,0.00,,,0.01,Wunderground v.1.15,2013-01-06 22:10:00,
2013-01-06 16:16:00,28.3,23.5,30.22,West,281,2.0,2.0,82,0.00,,,0.01,Wunderground v.1.15,2013-01-06 22:16:00,
2013-01-06 16:22:00,27.9,23.1,30.22,South,188,1.0,3.0,82,0.00,,,0.01,Wunderground v.1.15,2013-01-06 22:22:00,
2013-01-06 16:28:00,27.5,22.7,30.23,NW,311,2.0,3.0,82,0.00,,,0.01,Wunderground v.1.15,2013-01-06 22:28:00,
2013-01-06 16:33:00,27.2,22.7,30.23,WNW,303,2.0,2.0,83,0.00,,,0.01,Wunderground v.1.15,2013-01-06 22:33:00,
2013-01-06 16:38:00,26.9,22.4,30.23,NW,309,2.0,3.0,83,0.00,,,0.01,Wunderground v.1.15,2013-01-06 22:38:00,
2013-01-06 16:43:00,26.6,22.1,30.23,WNW,294,2.0,2.0,83,0.00,,,0.01,Wunderground v.1.15,2013-01-06 22:43:00,
2013-01-06 16:49:00,26.2,22.0,30.23,WNW,300,2.0,5.0,84,0.00,,,0.01,Wunderground v.1.15,2013-01-06 22:49:00,
2013-01-06 16:55:00,25.8,21.6,30.23,West,264,2.0,4.0,84,0.00,,,0.01,Wunderground v.1.15,2013-01-06 22:55:00,
2013-01-06 17:01:00,25.5,21.3,30.24,NW,311,2.0,3.0,84,0.00,,,0.01,Wunderground v.1.15,2013-01-06 23:01:00,
2013-01-06 17:06:00,25.2,21.3,30.24,West,278,2.0,3.0,85,0.00,,,0.01,Wunderground v.1.15,2013-01-06 23:06:00,
2013-01-06 17:12:00,24.9,21.0,30.24,WNW,294,2.0,3.0,85,0.00,,,0.01,Wunderground v.1.15,2013-01-06 23:12:00,
2013-01-06 17:18:00,24.7,20.8,30.25,WNW,298,3.0,3.0,85,0.00,,,0.01,Wunderground v.1.15,2013-01-06 23:18:00,
2013-01-06 17:24:00,24.4,20.8,30.25,WNW,297,3.0,3.0,86,0.00,,,0.01,Wunderground v.1.15,2013-01-06 23:24:00,
2013-01-06 17:31:00,24.2,20.6,30.25,West,260,2.0,2.0,86,0.00,,,0.01,Wunderground v.1.15,2013-01-06 23:31:00,
2013-01-06 17:36:00,24.0,20.4,30.25,WNW,285,2.0,4.0,86,0.00,,,0.01,Wunderground v.1.15,2013-01-06 23:36:00,
2013-01-06 17:41:00,23.8,20.2,30.25,NW,305,2.0,2.0,86,0.00,,,0.01,Wunderground v.1.15,2013-01-06 23:41:00,
2013-01-06 17:47:00,23.5,19.9,30.25,NNW,331,1.0,3.0,86,0.00,,,0.01,Wunderground v.1.15,2013-01-06 23:47:00,
2013-01-06 17:53:00,23.3,20.0,30.26,WSW,246,1.0,2.0,87,0.00,,,0.01,Wunderground v.1.15,2013-01-06 23:53:00,
2013-01-06 17:59:00,23.1,19.8,30.26,West,273,1.0,4.0,87,0.00,,,0.01,Wunderground v.1.15,2013-01-06 23:59:00,
2013-01-06 18:05:00,22.9,19.6,30.26,SW,220,1.0,7.0,87,0.00,,,0.01,Wunderground v.1.15,2013-01-07 00:05:00,
2013-01-06 18:10:00,22.7,19.4,30.26,NW,321,1.0,2.0,87,0.00,,,0.01,Wunderground v.1.15,2013-01-07 00:10:00,
2013-01-06 18:15:00,22.6,19.3,30.26,NW,304,1.0,2.0,87,0.00,,,0.01,Wunderground v.1.15,2013-01-07 00:15:00,
2013-01-06 18:21:00,22.4,19.4,30.26,NW,305,1.0,2.0,88,0.00,,,0.01,Wunderground v.1.15,2013-01-07 00:21:00,
2013-01-06 18:27:00,22.3,19.3,30.26,WNW,303,1.0,5.0,88,0.00,,,0.01,Wunderground v.1.15,2013-01-07 00:27:00,
2013-01-06 18:33:00,22.2,19.2,30.27,West,279,1.0,3.0,88,0.00,,,0.01,Wunderground v.1.15,2013-01-07 00:33:00,
2013-01-06 18:38:00,22.1,19.1,30.27,West,277,1.0,3.0,88,0.00,,,0.01,Wunderground v.1.15,2013-01-07 00:38:00,
2013-01-06 18:43:00,21.9,18.9,30.27,NW,307,1.0,3.0,88,0.00,,,0.01,Wunderground v.1.15,2013-01-07 00:43:00,
2013-01-06 18:49:00,21.8,18.8,30.28,West,275,1.0,3.0,88,0.00,,,0.01,Wunderground v.1.15,2013-01-07 00:49:00,
2013-01-06 18:55:00,21.7,18.7,30.28,West,278,1.0,1.0,88,0.00,,,0.01,Wunderground v.1.15,2013-01-07 00:55:00,
2013-01-06 19:01:00,21.5,18.5,30.28,SW,224,1.0,4.0,88,0.00,,,0.01,Wunderground v.1.15,2013-01-07 01:01:00,
2013-01-06 19:07:00,21.3,18.3,30.28,NNW,337,0.0,4.0,88,0.00,,,0.01,Wunderground v.1.15,2013-01-07 01:07:00,
2013-01-06 19:13:00,21.2,18.2,30.28,West,266,0.0,3.0,88,0.00,,,0.01,Wunderground v.1.15,2013-01-07 01:13:00,
2013-01-06 19:18:00,21.1,18.4,30.28,West,273,1.0,3.0,89,0.00,,,0.01,Wunderground v.1.15,2013-01-07 01:18:00,
2013-01-06 19:24:00,21.0,18.0,30.28,South,172,1.0,2.0,88,0.00,,,0.01,Wunderground v.1.15,2013-01-07 01:24:00,
2013-01-06 19:30:00,20.9,17.9,30.28,South,178,1.0,1.0,88,0.00,,,0.01,Wunderground v.1.15,2013-01-07 01:30:00,
2013-01-06 19:35:00,20.7,17.7,30.28,South,178,0.0,1.0,88,0.00,,,0.01,Wunderground v.1.15,2013-01-07 01:35:00,
2013-01-06 19:41:00,20.5,17.8,30.28,South,178,0.0,0.0,89,0.00,,,0.01,Wunderground v.1.15,2013-01-07 01:41:00,
2013-01-06 19:47:00,20.3,17.6,30.28,South,178,0.0,0.0,89,0.00,,,0.01,Wunderground v.1.15,2013-01-07 01:47:00,
2013-01-06 19:52:00,20.2,17.7,30.28,South,178,0.0,0.0,90,0.00,,,0.01,Wunderground v.1.15,2013-01-07 01:52:00,
2013-01-06 19:57:00,20.1,17.6,30.28,South,178,0.0,0.0,90,0.00,,,0.01,Wunderground v.1.15,2013-01-07 01:57:00,
2013-01-06 20:02:00,19.9,17.4,30.28,South,178,0.0,3.0,90,0.00,,,0.01,Wunderground v.1.15,2013-01-07 02:02:00,
2013-01-06 20:08:00,19.8,17.3,30.28,South,178,0.0,3.0,90,0.00,,,0.01,Wunderground v.1.15,2013-01-07 02:08:00,
2013-01-06 20:13:00,19.6,17.1,30.29,South,178,0.0,0.0,90,0.00,,,0.01,Wunderground v.1.15,2013-01-07 02:13:00,
2013-01-06 20:18:00,19.5,17.0,30.29,South,178,0.0,0.0,90,0.00,,,0.01,Wunderground v.1.15,2013-01-07 02:18:00,
2013-01-06 20:24:00,19.3,17.1,30.28,South,178,0.0,0.0,91,0.00,,,0.01,Wunderground v.1.15,2013-01-07 02:24:00,
2013-01-06 20:30:00,19.2,17.0,30.28,South,178,0.0,0.0,91,0.00,,,0.01,Wunderground v.1.15,2013-01-07 02:30:00,
2013-01-06 20:35:00,19.1,16.9,30.28,South,178,0.0,0.0,91,0.00,,,0.01,Wunderground v.1.15,2013-01-07 02:35:00,
2013-01-06 20:40:00,19.0,16.8,30.29,South,178,0.0,0.0,91,0.00,,,0.01,Wunderground v.1.15,2013-01-07 02:40:00,
2013-01-06 20:46:00,18.9,16.7,30.29,South,178,0.0,0.0,91,0.00,,,0.01,Wunderground v.1.15,2013-01-07 02:46:00,
2013-01-06 20:51:00,18.8,16.6,30.29,South,178,0.0,0.0,91,0.00,,,0.01,Wunderground v.1.15,2013-01-07 02:51:00,
2013-01-06 20:56:00,18.7,16.5,30.29,South,178,0.0,0.0,91,0.00,,,0.01,Wunderground v.1.15,2013-01-07 02:56:00,
2013-01-06 21:01:00,18.5,16.3,30.29,South,178,0.0,1.0,91,0.00,,,0.01,Wunderground v.1.15,2013-01-07 03:01:00,
2013-01-06 21:07:00,18.4,16.2,30.29,South,178,0.0,1.0,91,0.00,,,0.01,Wunderground v.1.15,2013-01-07 03:07:00,
2013-01-06 21:12:00,18.4,16.2,30.29,South,178,0.0,0.0,91,0.00,,,0.01,Wunderground v.1.15,2013-01-07 03:12:00,
2013-01-06 21:18:00,18.2,16.0,30.30,South,178,0.0,0.0,91,0.00,,,0.01,Wunderground v.1.15,2013-01-07 03:18:00,
2013-01-06 21:23:00,18.1,15.9,30.29,South,178,0.0,0.0,91,0.00,,,0.01,Wunderground v.1.15,2013-01-07 03:23:00,
2013-01-06 21:28:00,18.0,15.8,30.29,South,178,0.0,0.0,91,0.00,,,0.01,Wunderground v.1.15,2013-01-07 03:28:00,
2013-01-06 21:33:00,18.0,16.1,30.29,South,178,0.0,0.0,92,0.00,,,0.01,Wunderground v.1.15,2013-01-07 03:33:00,
2013-01-06 21:38:00,17.9,16.0,30.29,South,178,0.0,0.0,92,0.00,,,0.01,Wunderground v.1.15,2013-01-07 03:38:00,
2013-01-06 21:43:00,17.9,16.0,30.29,South,178,0.0,0.0,92,0.00,,,0.01,Wunderground v.1.15,2013-01-07 03:43:00,
2013-01-06 21:49:00,17.8,15.9,30.30,South,178,0.0,0.0,92,0.00,,,0.01,Wunderground v.1.15,2013-01-07 03:49:00,
2013-01-06 21:54:00,17.8,16.1,30.30,South,178,0.0,0.0,93,0.00,,,0.01,Wunderground v.1.15,2013-01-07 03:54:00,
2013-01-06 22:00:00,17.9,16.2,30.30,South,178,0.0,0.0,93,0.00,,,0.01,Wunderground v.1.15,2013-01-07 04:00:00,
2013-01-06 22:06:00,17.9,16.2,30.31,South,178,0.0,0.0,93,0.00,,,0.01,Wunderground v.1.15,2013-01-07 04:06:00,
2013-01-06 22:12:00,17.9,16.2,30.31,South,178,0.0,0.0,93,0.00,,,0.01,Wunderground v.1.15,2013-01-07 04:12:00,
2013-01-06 22:17:00,17.9,16.2,30.31,South,178,0.0,0.0,93,0.00,,,0.01,Wunderground v.1.15,2013-01-07 04:17:00,
2013-01-06 22:23:00,18.0,16.3,30.31,South,185,0.0,0.0,93,0.00,,,0.01,Wunderground v.1.15,2013-01-07 04:23:00,
2013-01-06 22:28:00,18.0,16.3,30.31,South,185,0.0,0.0,93,0.00,,,0.01,Wunderground v.1.15,2013-01-07 04:28:00,
2013-01-06 22:33:00,18.0,16.3,30.31,South,185,0.0,0.0,93,0.00,,,0.01,Wunderground v.1.15,2013-01-07 04:33:00,
2013-01-06 22:38:00,18.0,16.3,30.30,South,185,0.0,0.0,93,0.00,,,0.01,Wunderground v.1.15,2013-01-07 04:38:00,
2013-01-06 22:43:00,18.0,16.3,30.31,South,185,0.0,0.0,93,0.00,,,0.01,Wunderground v.1.15,2013-01-07 04:43:00,
2013-01-06 22:48:00,17.9,16.2,30.31,South,185,0.0,0.0,93,0.00,,,0.01,Wunderground v.1.15,2013-01-07 04:48:00,
2013-01-06 22:54:00,17.8,16.1,30.31,South,185,0.0,0.0,93,0.00,,,0.01,Wunderground v.1.15,2013-01-07 04:54:00,
2013-01-06 22:59:00,17.7,16.0,30.31,South,185,0.0,0.0,93,0.00,,,0.01,Wunderground v.1.15,2013-01-07 04:59:00,
2013-01-06 23:00:00,17.6,15.9,30.31,South,185,0.0,0.0,93,0.00,,,0.01,Wunderground v.1.15,2013-01-07 05:00:00,
2013-01-06 23:01:00,17.6,15.9,30.31,South,185,0.0,0.0,93,0.00,,,0.01,Wunderground v.1.15,2013-01-07 05:01:00,
2013-01-06 23:05:00,17.5,15.8,30.30,South,185,0.0,0.0,93,0.00,,,0.01,Wunderground v.1.15,2013-01-07 05:05:00,
2013-01-06 23:10:00,17.4,15.7,30.30,South,185,0.0,0.0,93,0.00,,,0.01,Wunderground v.1.15,2013-01-07 05:10:00,
2013-01-06 23:15:00,17.3,15.6,30.31,South,185,0.0,0.0,93,0.00,,,0.01,Wunderground v.1.15,2013-01-07 05:15:00,
2013-01-06 23:20:00,17.3,15.9,30.31,South,185,0.0,0.0,94,0.00,,,0.01,Wunderground v.1.15,2013-01-07 05:20:00,
2013-01-06 23:25:00,17.2,15.8,30.31,South,185,0.0,0.0,94,0.00,,,0.01,Wunderground v.1.15,2013-01-07 05:25:00,
2013-01-06 23:30:00,17.2,15.8,30.30,South,185,0.0,0.0,94,0.00,,,0.01,Wunderground v.1.15,2013-01-07 05:30:00,
2013-01-06 23:35:00,17.1,15.7,30.30,South,185,0.0,0.0,94,0.00,,,0.01,Wunderground v.1.15,2013-01-07 05:35:00,
2013-01-06 23:40:00,17.0,15.6,30.30,South,185,0.0,0.0,94,0.00,,,0.01,Wunderground v.1.15,2013-01-07 05:40:00,
2013-01-06 23:45:00,17.0,15.6,30.30,South,185,0.0,0.0,94,0.00,,,0.01,Wunderground v.1.15,2013-01-07 05:45:00,
2013-01-06 23:50:00,16.9,15.5,30.30,South,185,0.0,0.0,94,0.00,,,0.01,Wunderground v.1.15,2013-01-07 05:50:00,
2013-01-06 23:55:00,16.8,15.4,30.31,South,185,0.0,0.0,94,0.00,,,0.01,Wunderground v.1.15,2013-01-07 05:55:00,